Location: Prairie View Elementary School
(39.8322°N, 99.5698°W)
Time: 13:18:21
(UTC+00:00)

IRS-1C Rocket - Pass Details

Date: 08 December 2019
Orbit: 800 x 806 km, 99.0° (Epoch: 27 January)

Event Time Altitude Azimuth Distance (km) Brightness Sun altitude
Rises 00:03:44 0° 167° (SSE) 3,305 7.4 -9.6°
Reaches altitude 10° 00:06:04 10° 168° (SSE) 2,378 6.7 -10.0°
Maximum altitude 00:11:20 82° 255° (WSW) 818 4.2 -10.9°
Drops below altitude 10° 00:16:38 10° 344° (NNW) 2,391 6.5 -11.9°
Sets 00:18:58 0° 346° (NNW) 3,325 7.3 -12.3°
